Location: Caltech
(34.1382°N, 118.1253°W)
Time: 18:49:14
(UTC-07:00)

Oscar 19 - Visible Passes

Search period start: 18 April 2014 00:00
Search period end: 28 April 2014 00:00
Orbit: 775 x 791 km, 98.5° (Epoch: 17 April)

Date Brightness Start Highest point End Pass type
(mag) Time Alt. Az. Time Alt. Az. Time Alt. Az.
18 Apr 13.1 02:10:21 10° NNE 02:11:43 18° NNE 02:11:43 18° NNE visible
18 Apr 12.8 03:51:01 10° NNW 03:52:18 14° NW 03:52:18 14° NW visible
19 Apr 13.5 01:39:36 10° NE 01:39:55 11° NE 01:39:55 11° NE visible
19 Apr 12.5 03:18:26 10° N 03:20:31 22° NNW 03:20:31 22° NNW visible
20 Apr 12.5 02:46:33 10° N 02:48:43 25° N 02:48:43 25° N visible
21 Apr 12.9 02:15:07 10° NNE 02:16:54 22° NNE 02:16:54 22° NNE visible
21 Apr 12.8 03:56:08 10° NNW 03:57:30 14° NW 03:57:30 14° NW visible
22 Apr 13.3 01:44:15 10° NE 01:45:06 14° NE 01:45:06 14° NE visible
22 Apr 12.4 03:23:22 10° N 03:25:41 22° NNW 03:25:41 22° NNW visible
23 Apr 12.3 02:51:23 10° N 02:53:53 29° N 02:53:53 29° N visible
24 Apr 12.6 02:19:53 10° NNE 02:22:05 25° NNE 02:22:05 25° NNE visible
24 Apr 12.8 04:01:18 10° NW 04:02:40 13° NW 04:02:40 13° NW visible
25 Apr 13.1 01:48:55 10° NE 01:50:16 17° NE 01:50:16 17° NE visible
25 Apr 12.3 03:28:19 10° NNW 03:30:51 22° NW 03:30:51 22° NW visible
26 Apr 12.1 02:56:15 10° N 02:59:02 31° N 02:59:02 31° N visible
27 Apr 12.4 02:24:40 10° NNE 02:27:13 30° NNE 02:27:13 30° NNE visible
27 Apr 12.8 04:06:34 10° NW 04:07:49 12° NW 04:07:49 12° NW visible
